Location: Kuppenheim
(48.8299°N, 8.2568°E)
Time: 08:26:47
(UTC+00:00)

Helios 1A - Pass Details

Date: 20 June 2021
Orbit: 584 x 601 km, 98.2° (Epoch: 23 July)

Event Time Altitude Azimuth Distance (km) Brightness Sun altitude
Exits shadow 00:59:49 26° 204° (SSW) 1,175 3.9 -14.9°
Maximum altitude 01:01:45 44° 261° (W) 827 3.5 -14.8°
Drops below altitude 10° 01:05:48 10° 334° (NNW) 1,947 6.2 -14.5°
Sets 01:08:04 0° 341° (NNW) 2,858 7.2 -14.4°
